Location: Newark
(43.4306°N, 0.3089°E)
Time: 08:04:26
(UTC+00:00)

Vanguard 3 - Pass Details

Date: 31 August 2019
Orbit: 508 x 3263 km, 33.4° (Epoch: 14 September)

Event Time Altitude Azimuth Distance (km) Brightness Sun altitude
Rises 16:15:55 0° 257° (WSW) 5,996 13.0 24.5°
Reaches altitude 10° 16:20:46 10° 252° (WSW) 4,528 12.9 23.7°
Maximum altitude 16:31:10 42° 187° (S) 1,814 9.4 21.8°
Drops below altitude 10° 16:37:16 10° 118° (ESE) 2,665 9.4 20.7°
Sets 16:39:25 0° 110° (ESE) 3,365 9.8 20.3°
